Torna al catalogo

KESTREL-0A

AttivoMilitareSSO
NORAD 64624·PAYLOAD·🇺🇸 United States

Lanciato Jun 26, 2025 da Rocket Lab Launch Complex 1

Loading…

Prossimi Passaggi (prossime 24 ore)

TLE

AggiornatoSource: Space-Track

Epoca: Sep 14, 2026, 11:26 UTC

1 64624U 25138D   26257.47660282  .00006900  00000-0  28407-3 0  9997
2 64624  97.4455 260.9579 0013264 163.7978 196.3686 15.24364083 67540

Traccia KESTREL-0A in tempo reale con AllMySat

Download on the App Store